TimeEST,TemperatureF,Dew PointF,Humidity,Sea Level PressureIn,VisibilityMPH,Wind Direction,Wind SpeedMPH,Gust SpeedMPH,PrecipitationIn,Events,Conditions,WindDirDegrees,DateUTC
12:15 AM,10.4,5.0,79,30.27,10.0,Calm,Calm,-,N/A,,Clear,0,2013-01-23 05:15:00
12:35 AM,8.6,3.2,79,30.26,10.0,Calm,Calm,-,N/A,,Clear,0,2013-01-23 05:35:00
12:55 AM,10.4,1.4,67,30.26,10.0,Calm,Calm,-,N/A,,Clear,0,2013-01-23 05:55:00
1:15 AM,8.6,3.2,79,30.26,10.0,Calm,Calm,-,N/A,,Clear,0,2013-01-23 06:15:00
1:35 AM,8.6,3.2,79,30.27,10.0,Calm,Calm,-,N/A,,Clear,0,2013-01-23 06:35:00
1:55 AM,8.6,3.2,79,30.27,10.0,Calm,Calm,-,N/A,,Clear,0,2013-01-23 06:55:00
2:15 AM,8.6,3.2,79,30.27,10.0,Calm,Calm,-,N/A,,Clear,0,2013-01-23 07:15:00
2:35 AM,8.6,5.0,85,30.28,10.0,Calm,Calm,-,N/A,,Clear,0,2013-01-23 07:35:00
2:55 AM,8.6,3.2,79,30.28,10.0,Calm,Calm,-,N/A,,Clear,0,2013-01-23 07:55:00
3:15 AM,8.6,3.2,79,30.27,10.0,Calm,Calm,-,N/A,,Clear,0,2013-01-23 08:15:00
3:35 AM,8.6,3.2,79,30.28,10.0,Calm,Calm,-,N/A,,Clear,0,2013-01-23 08:35:00
3:55 AM,8.6,3.2,79,30.27,10.0,Calm,Calm,-,N/A,,Clear,0,2013-01-23 08:55:00
4:15 AM,6.8,3.2,85,30.27,10.0,Calm,Calm,-,N/A,,Clear,0,2013-01-23 09:15:00
4:35 AM,6.8,3.2,85,30.28,10.0,Calm,Calm,-,N/A,,Clear,0,2013-01-23 09:35:00
4:55 AM,6.8,3.2,85,30.28,10.0,Calm,Calm,-,N/A,,Clear,0,2013-01-23 09:55:00
5:15 AM,8.6,1.4,73,30.28,10.0,Calm,Calm,-,N/A,,Clear,0,2013-01-23 10:15:00
5:35 AM,6.8,1.4,79,30.28,10.0,Calm,Calm,-,N/A,,Clear,0,2013-01-23 10:35:00
5:55 AM,6.8,1.4,79,30.28,10.0,Calm,Calm,-,N/A,,Clear,0,2013-01-23 10:55:00
6:15 AM,6.8,1.4,79,30.29,10.0,Calm,Calm,-,N/A,,Clear,0,2013-01-23 11:15:00
6:35 AM,6.8,1.4,79,30.29,10.0,South,3.5,-,N/A,,Clear,190,2013-01-23 11:35:00
6:55 AM,8.6,3.2,79,30.30,10.0,SSW,3.5,-,N/A,,Clear,200,2013-01-23 11:55:00
7:15 AM,8.6,3.2,79,30.30,10.0,Calm,Calm,-,N/A,,Clear,0,2013-01-23 12:15:00
7:35 AM,6.8,1.4,79,30.31,10.0,Calm,Calm,-,N/A,,Clear,0,2013-01-23 12:35:00
7:55 AM,8.6,3.2,79,30.31,10.0,SSW,3.5,-,N/A,,Clear,210,2013-01-23 12:55:00
8:15 AM,10.4,6.8,85,30.31,10.0,East,3.5,-,N/A,,Clear,90,2013-01-23 13:15:00
8:35 AM,15.8,6.8,68,30.31,10.0,Calm,Calm,-,N/A,,Clear,0,2013-01-23 13:35:00
8:55 AM,17.6,6.8,63,30.32,10.0,Calm,Calm,-,N/A,,Clear,0,2013-01-23 13:55:00
9:15 AM,19.4,6.8,58,30.32,10.0,Calm,Calm,-,N/A,,Clear,0,2013-01-23 14:15:00
9:35 AM,21.2,3.2,46,30.31,10.0,Calm,Calm,-,N/A,,Clear,0,2013-01-23 14:35:00
9:55 AM,21.2,1.4,42,30.31,10.0,West,10.4,-,N/A,,Clear,270,2013-01-23 14:55:00
10:15 AM,23.0,1.4,39,30.31,10.0,West,8.1,-,N/A,,Clear,260,2013-01-23 15:15:00
10:35 AM,24.8,-0.4,34,30.32,10.0,WSW,11.5,-,N/A,,Clear,250,2013-01-23 15:35:00
10:55 AM,24.8,-0.4,34,30.31,10.0,WSW,8.1,-,N/A,,Clear,250,2013-01-23 15:55:00
11:15 AM,24.8,-0.4,34,30.30,10.0,WSW,8.1,-,N/A,,Clear,240,2013-01-23 16:15:00
11:35 AM,26.6,-0.4,31,30.28,10.0,WSW,9.2,17.3,N/A,,Clear,250,2013-01-23 16:35:00
11:55 AM,26.6,-0.4,31,30.27,10.0,WSW,5.8,-,N/A,,Clear,250,2013-01-23 16:55:00
12:15 PM,28.4,-0.4,29,30.25,10.0,WSW,9.2,-,N/A,,Clear,250,2013-01-23 17:15:00
12:35 PM,26.6,-0.4,31,30.24,10.0,West,10.4,20.7,N/A,,Mostly Cloudy,280,2013-01-23 17:35:00
12:55 PM,28.4,-0.4,29,30.23,10.0,West,11.5,17.3,N/A,,Overcast,270,2013-01-23 17:55:00
1:15 PM,30.2,-0.4,27,30.21,10.0,SW,6.9,19.6,N/A,,Overcast,230,2013-01-23 18:15:00
1:35 PM,28.4,-0.4,29,30.21,10.0,WSW,8.1,-,N/A,,Overcast,250,2013-01-23 18:35:00
1:55 PM,30.2,-0.4,27,30.20,10.0,West,13.8,-,N/A,,Overcast,280,2013-01-23 18:55:00
2:15 PM,30.2,-0.4,27,30.19,10.0,West,8.1,16.1,N/A,,Overcast,270,2013-01-23 19:15:00
2:35 PM,28.4,-0.4,29,30.19,10.0,SSW,5.8,-,N/A,,Overcast,210,2013-01-23 19:35:00
2:55 PM,32.0,-0.4,25,30.18,10.0,West,12.7,16.1,N/A,,Overcast,270,2013-01-23 19:55:00
3:15 PM,32.0,-2.2,23,30.18,10.0,WSW,9.2,-,N/A,,Scattered Clouds,250,2013-01-23 20:15:00
3:35 PM,32.0,-0.4,25,30.17,10.0,West,9.2,-,N/A,,Mostly Cloudy,280,2013-01-23 20:35:00
3:55 PM,32.0,-2.2,23,30.16,10.0,Calm,Calm,-,N/A,,Scattered Clouds,0,2013-01-23 20:55:00
4:15 PM,30.2,-2.2,25,30.16,10.0,SSW,4.6,-,N/A,,Clear,210,2013-01-23 21:15:00
4:35 PM,30.2,-2.2,25,30.16,10.0,Calm,Calm,-,N/A,,Mostly Cloudy,0,2013-01-23 21:35:00
4:55 PM,30.2,-2.2,25,30.14,10.0,Calm,Calm,-,N/A,,Mostly Cloudy,0,2013-01-23 21:55:00
5:15 PM,30.2,-2.2,25,30.15,10.0,Calm,Calm,-,N/A,,Mostly Cloudy,0,2013-01-23 22:15:00
5:35 PM,30.2,-0.4,27,30.15,10.0,Calm,Calm,-,N/A,,Overcast,0,2013-01-23 22:35:00
5:55 PM,30.2,-0.4,27,30.14,10.0,Calm,Calm,-,N/A,,Overcast,0,2013-01-23 22:55:00
6:15 PM,28.4,3.2,34,30.14,10.0,Calm,Calm,-,N/A,,Overcast,0,2013-01-23 23:15:00
6:35 PM,28.4,3.2,34,30.14,10.0,Calm,Calm,-,N/A,,Overcast,0,2013-01-23 23:35:00
6:55 PM,28.4,3.2,34,30.13,10.0,SE,3.5,-,N/A,,Overcast,140,2013-01-23 23:55:00
7:15 PM,28.4,3.2,34,30.12,10.0,Calm,Calm,-,N/A,,Overcast,0,2013-01-24 00:15:00
7:35 PM,28.4,6.8,40,30.12,10.0,Calm,Calm,-,N/A,,Overcast,0,2013-01-24 00:35:00
7:55 PM,26.6,10.4,51,30.11,10.0,Calm,Calm,-,N/A,,Overcast,0,2013-01-24 00:55:00
8:15 PM,26.6,8.6,47,30.11,10.0,Calm,Calm,-,N/A,,Overcast,0,2013-01-24 01:15:00
8:35 PM,28.4,5.0,37,30.12,10.0,NE,3.5,-,N/A,,Overcast,40,2013-01-24 01:35:00
8:55 PM,28.4,5.0,37,30.12,10.0,NE,4.6,-,N/A,,Overcast,40,2013-01-24 01:55:00
9:15 PM,26.6,3.2,37,30.11,10.0,NNE,5.8,-,N/A,,Overcast,30,2013-01-24 02:15:00
9:35 PM,26.6,3.2,37,30.10,10.0,NE,8.1,-,N/A,,Overcast,40,2013-01-24 02:35:00
9:55 PM,26.6,1.4,34,30.11,10.0,East,6.9,-,N/A,,Overcast,80,2013-01-24 02:55:00
10:15 PM,26.6,3.2,37,30.11,10.0,ENE,4.6,-,N/A,,Overcast,70,2013-01-24 03:15:00
10:35 PM,26.6,3.2,37,30.11,10.0,ENE,5.8,-,N/A,,Overcast,60,2013-01-24 03:35:00
10:55 PM,26.6,8.6,47,30.10,7.0,NE,6.9,-,N/A,Snow,Light Snow,50,2013-01-24 03:55:00
11:15 PM,24.8,12.2,59,30.11,2.5,NE,5.8,-,N/A,Snow,Light Snow,50,2013-01-24 04:15:00
11:35 PM,23.0,17.6,80,30.10,1.5,NE,4.6,-,N/A,Snow,Light Snow,40,2013-01-24 04:35:00
11:55 PM,21.2,19.4,93,30.09,1.2,NE,4.6,-,N/A,Snow,Light Snow,40,2013-01-24 04:55:00